[[{"header":{"parameterUnit":"m.s-1","parameterCategory":1,"la1":30.2992,"la2":30.254,"lo1":-89.0895,"lo2":-89.0443,"dy":0.0025,"dx":0.0025,"nx":19,"ny":19,"refTime":"2026-04-30T03:00:00:Z","depth":0,"parameterNumber":2,"parameterNumberName":"U-component_of_WINDS"},"data":[0,0,0,-3.71,-3.7103,-3.7189,-3.7189,-3.7322,-3.7323,0,0,0,0,0,0,0,0,0,0,0,-3.7089,-3.7091,-3.71,-3.7103,-3.7188,-3.7189,-3.7322,-3.7323,0,0,0,0,0,0,0,0,0,0,0,-3.7089,-3.7091,-3.7092,-3.7103,-3.7188,-3.7189,-3.7321,-3.7248,0,0,0,0,0,0,0,0,0,0,-3.7161,-3.7165,-3.709,-3.7092,-3.7104,-3.7188,-3.7189,-3.7244,-3.7253,-3.7293,0,-3.7333,0,-3.7331,-3.7334,-3.7334,0,0,0,-3.7092,-3.7158,-3.7168,-3.7093,-3.7105,-3.7188,-3.7147,-3.7249,-3.7258,-3.7305,-3.7335,-3.7339,-3.7333,-3.7335,-3.7335,-3.7605,-3.7607,0,0,-3.7087,-3.7113,-3.7162,-3.7175,-3.7164,-3.7144,-3.715,-3.7254,-3.7289,-3.7335,-3.7342,-3.7335,-3.7336,-3.7337,-3.7603,-3.7605,0,0,0,-3.7081,-3.711,-3.7117,-3.717,-3.7184,-3.7147,-3.7153,-3.7284,-3.7284,-3.7343,-3.7336,-3.7337,-3.7339,-3.7601,-3.7604,-3.7716,0,0,0,-3.7077,-3.7106,-3.7115,-3.7132,-3.7182,-3.7235,-3.7181,-3.7277,-3.7288,-3.7336,-3.7337,-3.734,-3.7599,-3.7603,-3.7709,-3.7765,0,0,0,-3.7079,-3.7106,-3.7124,-3.7133,-3.7171,-3.7233,-3.7239,-3.7279,-3.7285,-3.7334,-3.7341,-3.7598,-3.7602,-3.7703,-3.7755,-3.7844,0,0,0,-3.7088,-3.7223,-3.7126,-3.7274,-3.717,-3.7302,-3.7238,-3.7334,-3.739,-3.7337,-3.76,-3.7604,-3.77,-3.7748,-3.7837,-3.7923,-3.7962,0,0,-3.7272,-3.7246,-3.733,-3.7246,-3.7402,-3.7287,-3.7458,-3.7485,-3.7466,-3.756,-3.7566,-3.7711,-3.7754,-3.7842,-3.8168,-3.8199,0,0,0,-3.7398,-3.7459,-3.7494,-3.7549,-3.7573,-3.7598,-3.7596,-3.7605,-3.7683,-3.752,-3.7767,-3.7791,-3.7842,-3.7882,-3.7908,-3.795,-3.7623,-3.7623,-3.7622,-3.7696,-3.7664,-3.7802,-3.7781,-3.7835,-3.7831,-3.7871,-3.7884,-3.7836,-3.7895,-3.7923,-3.8125,-3.8173,-3.8192,-3.8236,-3.7966,-3.7966,-3.7967,-3.7967,-3.7963,-3.8045,-3.7978,-3.8088,-3.8054,-3.8145,-3.8147,-3.811,-3.819,-3.8101,-3.8144,-3.805,-3.8227,-3.8263,-3.7975,-3.7974,-3.7973,-3.7972,-3.7971,-3.8155,-3.8188,-3.8198,-3.8273,-3.8334,-3.8307,-3.8388,-3.8353,-3.8322,-3.8364,-3.8389,-3.8387,-3.8381,-3.8379,-3.8379,-3.838,-3.8381,-3.8381,-3.8382,-3.8351,-3.8357,-3.8429,-3.8465,-3.8495,-3.853,-3.8527,-3.8556,-3.8578,-3.8547,-3.8547,-3.8494,-3.825,-3.8189,-3.8392,-3.839,-3.8389,-3.8388,-3.8387,-3.8634,-3.8564,-3.8675,-3.8705,-3.8744,-3.8807,-3.8761,-3.8822,-3.8841,-3.8881,-3.8818,-3.8644,-3.8614,-3.8593,-3.8543,-3.8825,-3.8825,-3.8825,-3.8825,-3.8796,-3.8777,-3.8882,-3.8933,-3.8978,-3.8948,-3.9074,-3.9072,-3.906,-3.9069,-3.9023,-3.8953,-3.8933,-3.8915,-3.8887,-3.884,-3.9191,-3.9192,-3.9192,-3.8968,-3.8952,-3.9066,-3.9053,-3.908,-3.9104,-3.9221,-3.9281,-3.9252,-3.9206,-3.9075,-3.906,-3.8946,-3.8911,-3.8863,-3.882,-3.8732,0,0]},{"header":{"parameterUnit":"m.s-1","parameterCategory":1,"la1":30.2992,"la2":30.254,"lo1":-89.0895,"lo2":-89.0443,"dy":0.0025,"dx":0.0025,"nx":19,"ny":19,"refTime":"2026-04-30T03:00:00:Z","depth":0,"parameterNumber":3,"parameterNumberName":"V-component_of_WINDS"},"data":[0,0,0,-7.1256,-7.1257,-7.1279,-7.1279,-7.1351,-7.1352,0,0,0,0,0,0,0,0,0,0,0,-7.1276,-7.1278,-7.1256,-7.1257,-7.1279,-7.1279,-7.1351,-7.1352,0,0,0,0,0,0,0,0,0,0,0,-7.1276,-7.1278,-7.1279,-7.1257,-7.1279,-7.1279,-7.1351,-7.1318,0,0,0,0,0,0,0,0,0,0,-7.1289,-7.1335,-7.1277,-7.1279,-7.1258,-7.1279,-7.1279,-7.1316,-7.1321,-7.136,0,-7.1403,0,-7.1379,-7.136,-7.1361,0,0,0,-7.1237,-7.1332,-7.1313,-7.128,-7.1258,-7.1279,-7.1264,-7.1318,-7.1323,-7.1366,-7.1404,-7.1405,-7.138,-7.1361,-7.1361,-7.1657,-7.1659,0,0,-7.1236,-7.1295,-7.131,-7.1318,-7.1317,-7.1263,-7.1265,-7.132,-7.1365,-7.1404,-7.1406,-7.1382,-7.1362,-7.1362,-7.1654,-7.1657,0,0,0,-7.1246,-7.1296,-7.1274,-7.1316,-7.1317,-7.1264,-7.1266,-7.1363,-7.1351,-7.1406,-7.1382,-7.1362,-7.1364,-7.1652,-7.1655,-7.1827,0,0,0,-7.1244,-7.1301,-7.1275,-7.1312,-7.1316,-7.134,-7.1308,-7.1347,-7.1351,-7.1382,-7.1362,-7.1365,-7.1649,-7.1654,-7.1817,-7.1899,0,0,0,-7.1266,-7.1303,-7.1316,-7.1315,-7.1326,-7.1338,-7.1328,-7.1346,-7.1338,-7.1361,-7.1365,-7.1647,-7.1653,-7.1808,-7.1883,-7.1993,0,0,0,-7.1306,-7.147,-7.132,-7.1492,-7.1327,-7.1444,-7.1327,-7.1412,-7.1452,-7.1363,-7.1649,-7.1655,-7.1805,-7.1874,-7.1983,-7.2095,-7.2148,0,0,-7.1546,-7.1501,-7.1597,-7.1464,-7.1623,-7.1436,-7.162,-7.1601,-7.1549,-7.1624,-7.163,-7.182,-7.1882,-7.1991,-7.2421,-7.2463,0,0,0,-7.1694,-7.1764,-7.1793,-7.1833,-7.1822,-7.1818,-7.1764,-7.1757,-7.1817,-7.16,-7.1888,-7.1923,-7.1984,-7.2035,-7.207,-7.2118,-7.1681,-7.168,-7.168,-7.2119,-7.2042,-7.2196,-7.2122,-7.2163,-7.2104,-7.2129,-7.2109,-7.2021,-7.209,-7.2112,-7.2382,-7.2444,-7.2471,-7.2522,-7.2165,-7.2166,-7.2166,-7.2167,-7.2463,-7.2549,-7.2426,-7.2531,-7.2449,-7.2536,-7.2485,-7.242,-7.2489,-7.236,-7.241,-7.2277,-7.2519,-7.2559,-7.2179,-7.2177,-7.2175,-7.2174,-7.2173,-7.2733,-7.2761,-7.2747,-7.2795,-7.2841,-7.2759,-7.2831,-7.2753,-7.2681,-7.2731,-7.2744,-7.2741,-7.2727,-7.2742,-7.2743,-7.2744,-7.2745,-7.2746,-7.2746,-7.3019,-7.2997,-7.3067,-7.3066,-7.308,-7.3089,-7.3029,-7.3041,-7.3034,-7.2972,-7.2972,-7.2877,-7.2557,-7.2478,-7.2761,-7.2758,-7.2756,-7.2755,-7.2754,-7.3395,-7.3296,-7.3404,-7.3418,-7.3409,-7.3458,-7.3357,-7.3387,-7.3386,-7.3423,-7.3316,-7.3093,-7.3042,-7.3013,-7.2947,-7.3333,-7.3333,-7.3333,-7.3333,-7.3623,-7.3588,-7.3678,-7.3705,-7.3723,-7.3641,-7.3764,-7.3719,-7.3657,-7.3651,-7.3583,-7.3489,-7.3463,-7.3427,-7.3389,-7.3326,-7.38,-7.3801,-7.3801,-7.3849,-7.3812,-7.3932,-7.3868,-7.3854,-7.3844,-7.3956,-7.3991,-7.3901,-7.3818,-7.3644,-7.3624,-7.3471,-7.3425,-7.334,-7.3283,-7.3166,0,0]}]]